Tracking 29892 objects as of 21-Nov-2024
HD Live streaming from Space Station
objects crossing your sky now

STARLINK-31152

Track STARLINK-31152 now!
10-day predictions
STARLINK-31152 is classified as:


NORAD ID: 58734
Int'l Code: 2024-005G
Perigee: 565.6 km
Apogee: 566.7 km
Inclination: 43.0 °
Period: 95.8 minutes
Semi major axis: 6937 km
RCS: Unknown
Launch date: January 7, 2024
Source: United States (US)
Launch site: AIR FORCE EASTERN TEST RANGE (AFETR)
Your satellite tracking list
Your tracking list is empty




NASA's NSSDC Master Catalog

Two Line Element Set (TLE):
1 58734U 24005G   24325.87864883 -.00002196  00000-0 -14746-3 0  9991
2 58734  43.0004 276.5648 0000761 240.2139 119.8627 15.02559299 49142
Source of the keplerian elements: AFSPC